Volver al catálogo

ONEWEB-0652

ActivoComunicacionesPO
NORAD 55814·PAYLOAD·🇬🇧 United Kingdom

Lanzado Mar 9, 2023 desde Cape Canaveral Space Force Station

Loading…

Próximos Pases (próximas 24 horas)

TLE

ActualizadoSource: CelesTrak SupGP

Época: Sep 14, 2026, 16:56 UTC

1 55814C 23029U   26257.70573333 -.00002892  00000+0 -78111-2 0  2571
2 55814  87.8893 271.8578 0001941  96.9281   6.3392 13.14503026    15

Sigue ONEWEB-0652 en tiempo real con AllMySat

Download on the App Store